Weather reports worldwide

Advertisment
Messina, Italy (16420): temperature & dewpoint: 20.03.2019 20:00:00 - 26.03.2019 20:00:00 (CET)Messina, Italy (16420): wind speed: 20.03.2019 20:00:00 - 26.03.2019 20:00:00 (CET)Messina, Italy (16420): wind direction: 20.03.2019 20:00:00 - 26.03.2019 20:00:00 (CET)Messina, Italy (16420): reduced air pressure: 20.03.2019 20:00:00 - 26.03.2019 20:00:00 (CET)Messina, Italy (16420): visibility: 20.03.2019 20:00:00 - 26.03.2019 20:00:00 (CET)Messina, Italy (16420): sunshine duration: 20.03.2019 20:00:00 - 26.03.2019 20:00:00 (CET)
Date & Time tt [°C] td [°C] ff [km/h] ff [kn] dd ppp [hPa] vv [km] sd [min]
26.03.2019 20:00:00 15,0 10,6 8 4 N 1014,3 10 -
26.03.2019 19:00:00 15,0 10,2 9 5 NNE 1013,0 10 -
26.03.2019 18:00:00 - - - - - - - -
26.03.2019 17:00:00 16,4 8,1 11 6 NE 1011,5 20 60
26.03.2019 16:00:00 17,4 7,7 18 10 NE 1011,5 20 60
26.03.2019 15:00:00 18,0 7,1 22 12 NE 1011,5 20 60
26.03.2019 14:00:00 17,0 4,4 9 5 WNW 1011,8 20 60
26.03.2019 13:00:00 18,0 4,2 13 7 NE 1011,4 20 60
26.03.2019 12:00:00 17,4 1,4 13 7 N 1011,2 20 60
26.03.2019 11:00:00 16,8 6,6 21 11 NE 1011,3 20 60
26.03.2019 10:00:00 17,4 7,5 18 10 NE 1011,1 20 -
26.03.2019 09:00:00 15,8 5,7 8 4 NNE 1011,1 20 60
26.03.2019 08:00:00 14,8 7,8 9 5 NNE 1010,9 20 60
26.03.2019 07:00:00 13,0 11,1 9 5 N 1010,8 20 0
26.03.2019 06:00:00 13,0 11,1 9 5 NNE 1010,6 10 -
26.03.2019 05:00:00 13,0 10,9 13 7 NE 1010,6 10 -
26.03.2019 04:00:00 13,0 11,1 13 7 NE 1010,8 10 -
26.03.2019 03:00:00 13,0 10,9 11 6 NE 1011,5 10 -
26.03.2019 02:00:00 13,2 11,4 8 4 NNE 1012,5 10 -
26.03.2019 01:00:00 13,4 10,0 8 4 NE 1012,7 10 -
26.03.2019 00:00:00 13,6 8,2 8 4 NE 1012,9 10 -
25.03.2019 23:00:00 13,8 11,3 8 4 NE 1013,1 10 -
25.03.2019 22:00:00 14,0 11,9 8 4 NNE 1013,4 10 -
25.03.2019 21:00:00 14,4 12,6 5 3 NNE 1013,4 10 -
25.03.2019 20:00:00 14,4 12,4 8 4 NE 1013,5 10 -
25.03.2019 19:00:00 14,8 12,7 8 4 NNE 1013,3 10 -
25.03.2019 18:00:00 15,8 11,4 8 4 ENE 1013,4 10 18
25.03.2019 17:00:00 17,0 10,2 9 5 NNW 1014,4 10 60
25.03.2019 16:00:00 17,8 5,1 11 6 NW 1014,7 10 60
25.03.2019 15:00:00 19,0 4,0 11 6 WSW 1015,2 10 60
25.03.2019 14:00:00 18,8 2,2 8 4 NE 1015,7 10 60
25.03.2019 13:00:00 19,0 0,6 16 9 NE 1016,4 10 60
25.03.2019 12:00:00 17,8 9,9 15 8 NE 1017,3 10 60
25.03.2019 11:00:00 17,8 7,3 11 6 NE 1017,6 10 60
25.03.2019 10:00:00 17,2 7,8 11 6 NE 1018,0 10 60
25.03.2019 09:00:00 16,0 8,5 9 5 NE 1018,4 10 60
25.03.2019 08:00:00 14,8 10,0 9 5 NNE 1018,5 10 60
25.03.2019 07:00:00 13,4 10,8 8 4 NNE 1019,2 10 0
25.03.2019 06:00:00 13,4 11,6 9 5 NNE 1019,3 10 -
25.03.2019 05:00:00 13,8 10,4 8 4 NNE 1019,4 10 -
25.03.2019 04:00:00 13,8 8,6 11 6 NE 1019,5 10 -
25.03.2019 03:00:00 14,0 8,6 11 6 NNE 1019,6 10 -
25.03.2019 02:00:00 14,2 8,2 13 7 WNW 1019,7 10 -
25.03.2019 01:00:00 14,8 4,5 8 4 NNE 1019,9 10 -
25.03.2019 00:00:00 14,8 2,0 5 3 NNE 1020,3 10 -
24.03.2019 23:00:00 14,6 7,4 13 7 NE 1020,6 10 -
24.03.2019 22:00:00 14,8 9,4 9 5 NE 1020,8 10 -
24.03.2019 21:00:00 14,8 8,7 8 4 NE 1020,7 10 -
24.03.2019 20:00:00 15,0 10,6 9 5 NE 1020,6 10 -
24.03.2019 19:00:00 15,4 12,4 11 6 NE 1020,6 10 0
24.03.2019 18:00:00 16,2 12,0 8 4 NNE 1020,6 20 42
24.03.2019 17:00:00 17,2 10,8 15 8 NE 1020,6 20 60
24.03.2019 16:00:00 18,0 10,6 15 8 NE 1020,7 20 60
24.03.2019 15:00:00 17,8 11,8 21 11 NE 1021,2 10 60
24.03.2019 14:00:00 17,8 11,4 18 10 NE 1021,3 10 60
24.03.2019 13:00:00 18,2 7,3 9 5 NE 1021,5 10 60
24.03.2019 12:00:00 17,6 10,2 22 12 NE 1021,5 10 60
24.03.2019 11:00:00 18,2 4,4 13 7 NE 1021,5 10 60
24.03.2019 10:00:00 17,6 5,5 8 4 E 1021,5 10 60
24.03.2019 09:00:00 16,6 8,6 11 6 NE 1021,4 10 60
24.03.2019 08:00:00 15,4 6,4 9 5 NNE 1021,3 10 48
24.03.2019 07:00:00 14,0 6,4 8 4 NE 1021,1 10 6
24.03.2019 06:00:00 14,0 5,1 8 4 NNE 1020,6 10 -
24.03.2019 05:00:00 14,4 3,2 5 3 N 1020,5 10 -
24.03.2019 04:00:00 14,0 5,9 11 6 E 1020,5 10 -
24.03.2019 03:00:00 14,0 2,3 9 5 SSE 1020,5 10 -
24.03.2019 02:00:00 13,8 1,4 5 3 N 1020,8 10 -
24.03.2019 01:00:00 14,0 2,3 4 2 N 1020,8 10 -
24.03.2019 00:00:00 14,0 2,3 8 4 NW 1020,8 10 -
23.03.2019 23:00:00 14,6 2,2 9 5 NW 1020,7 10 -
23.03.2019 22:00:00 14,8 3,0 4 2 N 1020,6 10 -
23.03.2019 21:00:00 15,2 2,1 9 5 NW 1020,5 10 -
23.03.2019 20:00:00 15,4 2,2 8 4 NW 1020,4 10 -
23.03.2019 19:00:00 15,8 3,3 5 3 NNE 1019,5 10 0
23.03.2019 18:00:00 17,0 -0,2 8 4 NE 1019,5 10 30
23.03.2019 17:00:00 18,6 -0,8 5 3 NW 1019,4 20 60
23.03.2019 16:00:00 18,8 -0,6 9 5 NW 1019,5 20 60
23.03.2019 15:00:00 19,0 0,1 9 5 NNW 1019,5 20 60
23.03.2019 14:00:00 19,4 2,3 9 5 NNW 1019,8 20 60
23.03.2019 13:00:00 19,2 3,8 16 9 NE 1020,3 20 60
23.03.2019 12:00:00 19,2 -1,8 9 5 NNE 1020,4 20 60
23.03.2019 11:00:00 19,0 2,4 11 6 NNE 1020,5 10 60
23.03.2019 10:00:00 17,2 9,4 11 6 NE 1020,5 10 60
23.03.2019 09:00:00 16,2 7,9 8 4 NE 1020,5 10 60
23.03.2019 08:00:00 14,4 7,7 2 1 ENE 1020,5 20 60
23.03.2019 07:00:00 12,2 8,9 0 0 N 1020,3 10 12
23.03.2019 06:00:00 11,8 8,8 2 1 W 1020,2 10 -
23.03.2019 05:00:00 12,0 9,0 0 0 N 1020,3 10 -
23.03.2019 04:00:00 12,0 8,8 2 1 WSW 1020,5 10 -
23.03.2019 03:00:00 12,4 9,1 2 1 SW 1020,6 10 -
23.03.2019 02:00:00 12,6 9,4 2 1 W 1020,7 10 -
23.03.2019 01:00:00 13,0 9,6 2 1 N 1020,7 10 -
23.03.2019 00:00:00 13,0 9,1 2 1 NNW 1020,7 10 -
22.03.2019 23:00:00 13,4 9,5 0 0 N 1020,7 10 -
22.03.2019 22:00:00 13,8 9,7 0 0 N 1020,6 10 -
22.03.2019 21:00:00 15,0 9,1 2 1 NNE 1020,5 10 -
22.03.2019 20:00:00 15,4 9,7 5 3 NNE 1020,4 10 -
22.03.2019 19:00:00 16,4 8,4 5 3 N 1020,3 10 -
22.03.2019 18:00:00 18,0 5,3 5 3 NW 1020,2 20 24
22.03.2019 17:00:00 20,2 3,4 11 6 SSW 1020,2 20 60
22.03.2019 16:00:00 20,2 3,4 9 5 S 1020,5 20 60
22.03.2019 15:00:00 20,6 3,8 11 6 SSE 1020,4 20 60
22.03.2019 14:00:00 20,0 4,1 9 5 S 1020,8 20 60
22.03.2019 13:00:00 19,6 7,4 5 3 N 1021,0 20 60
22.03.2019 12:00:00 19,0 9,5 8 4 E 1021,1 20 60
22.03.2019 11:00:00 18,2 9,8 8 4 ESE 1021,8 20 60
22.03.2019 10:00:00 17,4 11,2 5 3 N 1021,8 10 60
22.03.2019 09:00:00 16,6 10,0 8 4 ENE 1021,9 10 18
22.03.2019 08:00:00 14,4 9,2 0 0 N 1021,3 10 0
22.03.2019 07:00:00 14,2 8,8 0 0 N 1020,7 10 0
22.03.2019 06:00:00 14,2 8,2 5 3 NW 1020,6 10 -
22.03.2019 05:00:00 14,0 8,0 4 2 WSW 1020,6 10 -
22.03.2019 04:00:00 14,2 5,8 0 0 N 1020,6 10 -
22.03.2019 03:00:00 15,0 5,8 5 3 NNW 1020,5 10 -
22.03.2019 02:00:00 15,8 5,1 4 2 WNW 1020,5 10 -
22.03.2019 01:00:00 15,8 5,4 8 4 W 1020,5 10 -
22.03.2019 00:00:00 14,8 7,1 4 2 NW 1020,5 10 -
21.03.2019 23:00:00 15,2 6,0 8 4 SW 1020,3 10 -
21.03.2019 22:00:00 15,2 4,6 0 0 N 1019,8 10 -
21.03.2019 21:00:00 15,6 4,3 8 4 WNW 1019,6 10 -
21.03.2019 20:00:00 16,0 5,0 5 3 NW 1019,5 10 -
21.03.2019 19:00:00 16,2 5,8 9 5 N 1018,8 10 -
21.03.2019 18:00:00 17,0 5,0 9 5 N 1018,7 10 0
21.03.2019 17:00:00 18,0 5,9 5 3 N 1018,7 10 0
21.03.2019 16:00:00 18,0 5,3 8 4 S 1018,6 10 0
21.03.2019 15:00:00 18,0 5,6 16 9 SSW 1018,5 20 0
21.03.2019 14:00:00 18,4 4,6 15 8 SSW 1018,8 20 0
21.03.2019 13:00:00 17,0 8,7 4 2 ENE 1019,6 20 0
21.03.2019 12:00:00 16,0 8,9 5 3 NE 1019,8 20 0
21.03.2019 11:00:00 15,2 9,6 4 2 NE 1019,6 10 0
21.03.2019 10:00:00 15,0 10,8 2 1 N 1019,6 10 0
21.03.2019 09:00:00 14,4 11,0 2 1 ESE 1019,4 10 0
21.03.2019 08:00:00 14,2 10,2 5 3 S 1018,9 10 0
21.03.2019 07:00:00 13,8 11,7 5 3 N 1018,8 10 0
21.03.2019 06:00:00 13,8 11,5 8 4 N 1018,8 10 -
21.03.2019 05:00:00 14,0 10,4 4 2 NNE 1018,9 10 -
21.03.2019 04:00:00 14,0 10,4 5 3 NNW 1019,1 10 -
21.03.2019 03:00:00 13,6 11,0 4 2 NNE 1019,3 10 -
21.03.2019 02:00:00 13,4 11,5 4 2 NNW 1019,5 10 -
21.03.2019 01:00:00 13,8 11,7 4 2 N 1019,5 10 -
21.03.2019 00:00:00 13,8 11,7 2 1 N 1019,5 10 -
20.03.2019 23:00:00 14,0 11,5 4 2 NNE 1019,6 10 -
20.03.2019 22:00:00 14,0 10,6 5 3 N 1019,5 10 -
20.03.2019 21:00:00 14,4 10,6 5 3 N 1019,2 10 -
20.03.2019 20:00:00 14,8 10,8 5 3 NNW 1018,3 10 -

tt = temperature
td = dewpoint
ff = wind speed
dd = wind direction
ppp = reduced air pressure
vv = visibility
sd = sunshine duration

Next stations